EHI
0 0 0 0 0 0 0 0 0 0 0 0 0 0 0 0 0 1 0 0 1 2 3 3 3 3 3 3 1 0 0 0 0 0 0 0 1 2 2 1 0 0 1 1 1 1 1 0 0
0 0 0 0 0 0 0 0 0 0 0 0 0 0 0 0 0 1 0 0 0 1 2 2 3 3 3 2 0 0 0 0 0 0 0 0 1 1 1 1 0 0 0 0 0 0 0 0 0
0 0 0 0 0 0 0 0 0 0 0 0 0 0 0 0 0 1 0 0 1 1 1 2 3 2 2 1 0 0 0 0 0 0 0 0 0 1 1 0 0 0 0 0 0 0 0 0 0
0 0 0 0 0 0 0 0 0 0 0 0 0 0 0 0 0 1 0 1 3 3 2 2 3 2 1 0 0 0 0 0 0 0 0 0 0 0 1 1 0 0 0 0 0 0 0 0 0
0 0 0 0 0 0 0 0 0 0 0 0 0 0 0 0 0 0 0 2 4 4 2 2 2 2 1 0 0 0 0 0 0 0 0 0 0 0 1 1 0 0 0 0 0 1 1 1 0
0 0 0 0 0 0 0 0 0 0 0 0 0 0 0 0 0 0 0 2 4 4 3 2 2 1 0 0 0 0 0 0 0 0 0 0 0 0 0 0 0 0 0 0 0 1 1 1 0
0 0 0 0 0 0 0 0 0 0 0 0 0 0 0 0 0 0 1 2 4 4 4 2 1 0 0 0 0 0 0 0 0 0 0 0 0 0 0 0 0 0 0 0 0 0 0 0 0
0 0 0 0 0 0 0 0 0 0 0 0 0 0 0 0 0 0 1 2 4 5 5 4 1 0 0 0 0 0 0 0 0 0 0 0 0 0 0 0 0 0 1 1 0 0 0 0 0
0 0 0 0 0 0 0 0 0 0 0 0 0 0 0 0 0 0 0 1 3 4 5 4 2 1 0 0 0 0 0 0 0 0 0 0 0 0 0 0 0 0 1 1 1 0 0 0 0
0 0 0 0 0 0 0 0 0 0 0 0 0 0 0 0 0 0 0 0 1 2 2 2 2 1 0 0 0 0 0 0 0 0 0 0 0 0 0 0 0 0 1 1 1 0 0 0 0
0 0 0 0 0 0 0 0 0 0 0 0 0 0 0 0 0 0 0 0 0 0 0 0 0 0 0 0 0 0 0 0 0 0 0 0 0 0 0 0 0 0 0 0 0 0 0 0 0
0 0 0 0 0 0 0 0 0 0 0 0 0 0 0 0 0 0 0 0 0 0 0 0 0 0 0 0 0 0 0 0 0 0 0 0 0 0 0 0 0 0 0 0 0 0 0 0 0
0 0 0 0 0 0 0 0 0 0 0 0 0 0 0 0 0 0 0 0 0 0 0 0 0 0 0 0 0 0 0 0 0 0 0 0 0 0 0 0 0 0 0 0 0 0 0 0 0
0 0 0 0 0 0 0 0 0 0 0 0 0 0 0 0 0 0 0 0 0 0 0 0 1 0 0 0 0 0 0 0 0 0 0 0 0 0 0 0 0 0 0 0 0 0 0 0 0
0 0 0 0 0 0 0 0 0 0 0 0 0 0 0 0 0 0 0 0 0 0 0 0 0 0 0 0 0 0 0 0 0 0 0 0 0 0 0 1 0 0 0 0 0 0 0 0 0
0 0 0 0 0 0 0 0 0 0 0 0 0 0 0 0 0 0 0 0 0 0 0 0 0 0 0 0 0 0 0 0 0 0 0 0 0 0 0 0 0 0 0 0 0 0 0 0 0
0 0 0 0 0 0 0 0 0 0 0 0 0 0 0 0 0 0 0 0 0 0 0 0 0 0 0 0 0 0 0 0 0 0 0 0 0 0 0 0 0 0 0 0 0 0 0 0 0
0 0 0 0 0 0 0 0 0 0 0 0 0 0 0 0 0 0 0 0 0 0 0 0 0 0 0 0 0 0 0 0 0 0 0 0 0 0 0 0 0 0 0 0 0 0 0 0 0
0 0 0 0 0 0 0 0 0 0 0 0 0 0 0 0 0 0 0 0 0 0 0 0 0 0 0 0 0 0 0 0 0 0 0 0 0 0 0 0 0 0 0 0 0 0 0 0 0
0 0 0 0 0 0 0 0 0 0 0 0 0 0 0 0 0 0 0 0 0 0 0 0 0 0 0 0 0 0 0 0 0 0 0 0 0 0 0 0 0 0 0 0 0 0 0 0 0
0 0 0 0 0 0 0 0 0 0 0 0 0 0 0 0 0 0 0 0 0 0 0 0 0 0 0 0 0 0 0 0 0 0 0 0 0 0 0 0 0 0 0 0 0 0 0 0 0
0 0 0 0 0 0 0 0 0 0 0 0 0 0 0 0 0 0 0 0 0 0 0 0 0 0 0 0 0 0 0 0 0 0 0 0 0 0 0 0 0 0 0 0 0 0 0 0 0
0 0 0 0 0 0 0 0 0 0 0 0 0 0 0 0 0 0 0 0 0 0 0 0 0 0 0 0 0 0 0 0 0 0 0 0 0 0 0 0 0 0 0 0 0 0 0 0 0
0 0 0 0 0 0 0 0 0 0 0 0 0 0 0 0 0 0 0 0 0 0 0 0 0 0 0 0 0 0 0 0 0 0 0 0 0 0 0 0 0 0 0 0 0 0 0 0 0
0 0 0 0 0 0 0 0 0 0 0 0 0 0 0 0 0 0 0 0 0 0 0 0 0 0 0 0 0 0 0 0 0 0 0 0 0 0 0 0 0 0 0 0 0 0 0 0 0
0 0 0 0 0 0 0 0 0 0 0 0 0 0 0 0 0 0 0 0 0 0 0 0 0 0 0 0 0 0 0 0 0 0 0 0 0 0 0 0 0 0 0 0 0 0 0 0 0
0 0 0 0 0 0 0 0 0 0 0 0 0 0 0 0 0 0 0 0 0 0 0 0 0 0 0 0 0 0 0 0 0 0 0 0 0 0 0 0 0 0 0 0 0 0 0 0 0
0 0 0 0 0 0 0 0 0 0 0 0 0 0 0 0 0 0 0 0 0 0 0 0 0 0 0 0 0 0 0 0 0 0 0 0 0 0 0 0 0 0 0 0 0 0 0 0 0
0 0 0 0 0 0 0 0 0 0 0 0 0 0 0 0 0 0 0 0 0 0 0 0 0 0 0 0 0 0 0 0 0 0 0 0 0 0 0 0 0 0 0 0 0 0 0 0 0
0 0 0 0 0 0 0 0 0 0 0 0 0 0 0 0 0 0 0 0 0 0 0 0 0 0 0 0 0 0 0 0 0 0 0 0 0 0 0 0 0 0 0 0 0 0 0 0 0
Wind_Speed
4 3 3 3 5 6 8 5 3 5 4 1 1 1 1 0 2 4 5 3 3 3 4 4 4 4 5 5 5 5 5 5 5 5 5 5 5 5 4 4 5 5 5 5 5 5 5 6 6
3 2 3 4 6 8 7 6 7 4 3 3 2 2 2 2 3 5 4 3 3 3 3 4 5 4 4 5 5 5 4 4 5 5 5 5 5 4 4 4 4 4 5 5 4 4 4 5 5
1 2 3 4 7 8 5 5 5 4 3 3 3 1 1 2 3 3 3 3 3 4 3 5 4 4 4 4 5 4 4 4 4 4 5 5 5 4 3 3 4 4 4 4 4 4 4 4 4
2 3 3 6 9 6 3 3 4 5 5 2 3 4 3 3 2 3 4 4 4 4 3 5 4 4 4 4 4 4 3 3 3 4 4 4 4 4 3 3 3 4 4 3 4 4 3 3 3
2 3 6 7 8 4 2 2 3 5 5 4 4 3 4 4 3 3 4 4 4 4 3 4 4 3 3 3 3 4 4 3 3 4 3 4 4 4 3 3 3 3 2 2 3 3 3 3 3
3 4 7 8 8 5 4 3 4 5 4 3 3 3 3 4 3 3 4 4 4 4 3 3 3 3 3 3 3 3 3 3 3 3 3 3 3 3 3 3 2 2 2 1 2 2 3 3 3
3 4 5 6 6 6 4 3 4 4 5 3 2 3 4 4 2 3 4 4 4 3 3 2 2 2 2 2 3 2 3 3 3 3 3 3 3 3 4 3 2 1 1 1 1 2 2 2 2
2 3 4 5 6 5 3 3 1 3 2 1 2 4 2 3 3 3 4 3 3 2 2 1 1 1 1 1 2 2 2 2 2 3 3 3 3 2 3 3 3 2 1 1 1 1 2 2 2
3 5 6 5 5 3 3 3 2 1 2 2 2 2 3 4 4 4 4 3 2 2 1 1 0 0 1 1 0 0 1 1 1 1 2 1 1 1 1 3 3 2 2 1 1 1 1 2 1
3 5 4 1 1 1 3 2 2 3 5 4 4 2 2 4 5 4 4 3 3 2 1 1 1 1 1 1 1 1 1 1 1 1 1 1 1 1 2 2 2 2 2 1 1 1 2 3 2
2 3 2 1 0 1 3 3 2 5 6 6 5 4 4 4 5 4 4 3 3 2 1 1 1 1 1 1 1 1 1 1 1 1 1 1 1 1 1 1 1 1 2 1 1 2 1 2 2
2 1 2 2 1 2 3 3 3 6 5 3 3 3 4 6 6 5 5 4 3 2 2 2 1 2 2 2 2 2 1 1 1 1 2 1 1 2 2 1 2 1 1 2 2 2 2 3 3
3 2 1 1 1 2 3 5 5 7 6 4 4 4 6 6 6 5 5 4 3 3 3 3 2 2 2 2 2 2 2 2 2 1 2 2 2 2 2 2 2 2 2 2 2 2 2 3 3
1 2 1 2 2 2 4 6 6 7 4 4 4 5 6 6 6 6 5 5 4 4 4 3 3 3 2 2 2 2 2 2 2 2 2 2 2 2 2 2 2 2 2 2 2 3 3 3 3
2 2 3 3 3 2 4 7 8 5 4 5 5 5 6 6 6 6 6 5 5 5 4 4 3 3 3 3 3 2 2 2 2 2 2 3 2 3 2 2 2 2 2 3 3 3 3 3 3
3 4 4 2 3 3 5 8 3 3 4 6 5 5 5 6 6 6 6 5 5 5 4 4 3 3 3 3 3 2 2 3 2 2 2 3 3 3 3 2 2 2 3 2 2 2 2 3 3
4 5 6 3 3 3 6 9 3 3 6 7 6 6 6 5 5 5 5 5 5 5 4 4 4 4 3 3 3 3 3 3 2 2 2 3 3 3 3 3 2 3 3 3 2 2 2 3 3
4 5 5 5 2 4 8 11 8 6 8 9 7 6 6 6 5 4 4 4 4 4 4 3 3 3 3 3 2 2 3 2 2 2 3 3 3 3 3 3 3 3 3 3 3 3 3 3 3
4 6 8 6 3 5 10 12 11 8 8 8 7 6 6 6 5 3 3 3 3 2 3 3 3 3 2 2 3 3 3 3 2 3 3 4 4 3 4 3 3 4 3 3 3 3 3 2 2
6 7 8 5 3 6 8 12 10 7 7 7 7 6 6 6 5 4 3 3 3 3 3 3 3 3 3 3 3 2 3 3 3 3 3 4 4 4 3 4 3 3 3 3 3 3 2 1 1
8 8 7 7 6 5 7 9 7 6 5 5 5 5 5 6 6 4 4 3 3 3 3 3 3 4 3 3 2 2 2 2 3 3 3 4 4 4 4 4 3 3 3 2 3 3 3 2 2
7 5 6 7 6 5 4 7 5 5 5 5 5 5 5 5 5 5 4 4 3 3 3 3 3 3 3 3 3 4 3 3 4 3 3 4 4 4 4 3 3 3 3 3 3 3 3 3 3
4 2 5 6 7 7 6 8 6 4 6 6 5 4 4 4 4 5 4 4 3 3 3 3 3 3 3 4 4 4 4 3 3 3 4 4 3 3 3 4 3 3 3 4 4 3 4 4 4
3 3 3 4 5 8 7 8 7 5 6 5 4 3 3 3 3 3 3 3 3 2 2 3 3 2 2 3 4 4 4 4 4 4 4 3 2 2 3 4 4 3 3 4 3 3 4 4 4
3 3 3 4 5 5 3 7 8 3 4 5 5 3 3 2 3 3 3 3 2 2 2 2 3 2 2 3 3 4 4 4 5 5 4 4 3 3 3 3 4 3 3 4 3 4 4 5 5
4 4 3 5 5 4 4 9 5 2 3 3 4 3 2 2 2 3 3 3 3 3 2 2 3 2 2 2 3 3 4 3 3 4 4 4 3 3 4 4 4 4 4 4 4 4 4 4 4
4 4 2 3 4 7 7 6 6 5 3 3 2 2 1 2 2 2 3 3 3 3 2 3 3 3 3 3 3 3 3 4 4 4 5 4 4 3 4 4 4 4 4 4 4 3 4 4 4
3 3 4 4 5 7 7 7 5 5 5 2 1 2 2 2 3 2 3 3 3 3 2 3 3 3 3 3 3 3 3 4 4 4 4 4 4 4 4 4 4 4 4 4 4 3 4 4 4
6 5 5 4 5 6 6 4 2 4 4 3 3 3 3 2 3 2 3 3 3 2 2 2 2 3 3 3 3 4 4 4 4 4 4 4 4 4 4 4 4 4 4 4 4 4 4 4 4
6 6 7 5 5 6 6 6 1 3 3 3 3 3 3 3 3 3 2 2 3 2 2 2 2 3 3 3 3 4 4 4 4 4 4 4 4 4 4 4 4 4 4 4 4 4 5 5 4
Wind_Direction
320 296 242 221 218 223 230 208 200 170 169 114 71 238 228 335 334 54 82 101 100 121 118 123 96 81 75 71 67 61 51 47 42 40 38 43 50 53 56 55 49 45 43 42 50 50 46 48 51
314 265 220 221 232 226 217 201 197 180 123 127 146 192 177 117 50 83 115 107 123 118 114 110 97 86 80 75 70 64 55 47 42 38 40 40 40 46 47 50 51 45 40 37 44 50 45 45 49
279 265 224 214 228 238 216 183 185 148 134 173 156 167 326 89 101 108 99 134 138 122 116 101 98 90 80 74 67 59 54 47 41 38 37 34 29 35 41 39 45 44 39 36 42 43 39 41 46
235 198 212 230 227 237 244 161 157 165 166 183 183 154 127 58 65 85 115 142 137 124 118 107 100 95 82 69 61 51 45 45 44 41 33 28 30 28 33 36 45 44 38 33 35 33 34 36 43
241 220 213 222 230 217 208 184 188 193 178 171 200 180 140 104 81 105 131 141 132 121 113 113 96 91 80 67 56 44 43 45 42 34 30 27 28 27 25 34 46 46 36 29 29 26 21 27 26
199 223 225 225 216 201 195 196 203 211 190 173 204 200 136 116 117 125 142 144 133 119 113 114 106 84 67 59 52 42 35 38 38 34 30 23 21 20 21 22 27 51 40 30 27 25 9 14 15
226 226 240 234 218 208 188 184 217 216 208 187 219 205 147 142 115 142 150 143 132 124 125 123 129 125 95 61 45 33 25 24 30 34 29 21 18 17 15 8 10 31 31 23 25 23 11 0 356
281 231 222 220 220 209 156 173 222 244 229 96 238 234 162 137 140 152 152 143 132 129 130 132 138 144 160 137 62 23 16 11 22 31 27 20 21 25 16 3 7 9 16 5 9 13 358 346 341
245 232 228 218 219 190 159 190 172 283 213 184 226 312 37 117 145 156 163 161 153 143 140 133 157 208 265 259 125 57 34 20 354 38 30 355 325 330 345 6 356 352 6 0 349 327 333 309 297
228 231 233 264 256 194 180 225 213 210 221 220 211 201 155 153 167 179 189 191 195 204 208 189 237 262 276 281 253 243 262 266 265 268 265 275 315 321 319 5 349 337 332 308 320 304 265 269 257
210 232 193 207 255 229 216 233 239 242 244 246 243 210 180 189 195 206 213 218 224 223 237 255 262 251 248 256 264 268 271 272 267 279 274 267 283 290 290 292 257 266 262 264 257 253 270 279 285
182 195 227 208 219 236 239 239 242 250 268 310 288 235 201 205 210 218 224 233 237 254 246 255 270 264 251 257 259 266 270 268 271 277 280 269 266 280 287 283 287 283 275 280 274 278 276 270 265
205 191 213 234 242 256 250 250 262 261 267 278 261 229 221 225 226 227 234 240 241 248 254 248 252 256 252 245 251 256 265 270 271 270 266 269 268 272 278 282 285 286 287 270 275 275 278 270 265
154 175 224 258 239 235 251 263 259 259 257 242 231 232 231 234 235 236 238 245 247 247 256 250 242 246 246 244 247 249 250 253 262 260 265 266 268 269 276 276 277 280 284 282 270 272 274 275 270
183 217 230 227 231 221 256 255 239 251 239 237 236 240 244 245 245 242 244 250 253 255 256 258 242 242 246 248 248 248 244 245 250 255 257 262 264 263 268 274 273 277 278 273 266 264 268 273 269
209 224 236 189 216 213 243 260 226 215 231 245 247 245 249 249 251 249 247 250 253 256 254 258 247 240 244 250 247 245 243 244 247 255 257 258 255 255 262 268 270 272 270 267 264 260 262 264 270
213 245 254 235 206 220 232 260 253 229 246 254 253 249 249 254 257 257 249 246 246 248 249 252 252 240 246 252 246 247 249 248 248 249 254 256 257 254 256 261 265 264 264 264 265 262 262 269 278
241 252 258 260 213 235 245 257 265 259 252 258 257 251 248 253 259 262 254 245 244 247 246 245 254 245 243 244 243 242 245 247 248 248 248 252 252 252 255 256 255 256 253 255 255 263 257 264 278
264 259 267 273 276 262 256 265 272 268 254 253 252 249 248 253 263 266 257 247 247 247 245 240 251 244 231 232 236 241 247 251 251 249 249 248 251 249 254 258 255 252 245 248 254 260 251 254 271
246 260 269 274 269 267 272 271 269 259 247 247 249 253 256 260 258 257 259 248 246 246 248 249 258 243 233 238 242 249 257 261 262 257 255 254 252 248 252 249 249 254 250 246 251 252 243 250 248
244 251 269 278 295 253 277 265 237 236 232 239 248 256 257 257 258 255 253 254 257 257 255 258 265 249 235 235 234 233 243 249 246 251 252 254 252 248 248 247 251 252 257 258 254 246 231 228 242
255 251 260 265 266 261 262 277 238 226 227 233 246 255 264 260 255 254 253 257 262 273 271 264 268 249 232 223 224 226 241 256 264 263 260 259 251 250 251 255 255 250 254 256 251 245 237 230 235
267 286 253 253 252 261 231 254 259 204 227 236 244 256 266 263 254 251 251 256 262 274 277 271 272 253 238 231 229 232 244 256 265 263 261 265 264 260 259 257 255 254 255 255 251 245 242 237 237
243 243 230 230 240 249 232 238 261 213 225 235 239 256 268 263 256 255 257 261 269 282 286 287 281 260 248 239 237 239 245 255 261 261 261 261 263 261 260 259 255 254 255 254 248 243 244 241 236
217 237 251 234 226 244 187 236 252 242 235 240 252 271 282 263 253 255 269 276 283 294 296 295 287 269 256 243 242 246 251 255 256 259 260 259 258 259 257 252 253 250 249 256 253 245 242 239 238
209 230 248 270 273 276 215 240 246 227 254 255 251 254 272 264 252 253 262 271 277 282 287 290 289 271 261 249 249 252 255 255 259 264 264 258 256 260 262 256 255 256 253 250 242 243 242 240 240
195 208 262 276 285 270 249 250 259 218 232 240 241 251 279 278 271 270 265 270 277 277 278 281 280 269 266 258 253 252 256 259 264 267 264 259 261 263 258 256 252 252 253 252 245 245 244 243 241
257 178 187 220 260 266 262 250 238 204 222 229 262 287 291 285 273 277 280 277 280 282 278 281 272 269 266 261 258 258 256 260 262 260 261 265 268 267 261 258 254 252 251 249 244 248 248 247 248
184 193 213 218 254 267 275 265 194 205 210 220 246 263 272 276 276 276 279 280 277 279 280 278 278 280 275 268 265 264 262 262 262 262 265 267 266 266 264 260 252 248 245 246 240 245 244 245 249
227 218 206 228 231 241 270 277 115 212 212 226 263 279 274 278 279 275 275 278 282 281 279 271 275 278 279 273 269 267 265 261 261 266 269 268 265 262 260 254 248 246 244 245 239 241 243 245 248